Location: Newark
(48.6461°N, 4.3644°W)
Time: 00:59:40
(UTC+00:00)

S-56A Canister/Altair - Pass Details

Date: 26 January 2020
Orbit: 633 x 2499 km, 38.9° (Epoch: 20 February)

Event Time Altitude Azimuth Distance (km) Brightness Sun altitude
Rises 20:05:20 0° 227° (SW) 4,231 11.9 -29.6°
Reaches altitude 10° 20:09:14 10° 214° (SW) 2,929 10.8 -30.2°
Enters shadow 20:12:41 20° 188° (S) 2,014 9.6 -30.8°
Maximum altitude 20:14:16 22° 166° (SSE) 1,806 - -31.0°
Drops below altitude 10° 20:18:17 10° 115° (ESE) 2,266 - -31.7°
Sets 20:20:51 0° 100° (E) 3,055 - -32.1°
